Theta_e
351 345 343 343 342 337 339 339 335 333 332 333 334 336 336 335 334 332 333 335 335 335 335 332 331 331 331 330 331 333 334 333 333 333 339 336 333 328 335 338 345 344 337
349 347 344 343 343 341 341 341 339 335 334 333 333 333 332 331 331 331 330 329 330 333 334 333 331 330 330 331 333 334 335 334 330 330 332 340 338 331 334 340 343 340 338
350 348 345 342 342 342 342 341 339 336 333 334 332 332 332 330 329 329 329 328 327 329 331 333 333 332 332 332 333 333 334 335 330 328 336 347 346 338 332 332 335 336 335
349 349 349 342 342 341 341 341 339 337 333 332 331 331 330 329 328 327 327 327 328 328 329 330 331 332 333 334 334 335 335 335 330 327 342 344 344 339 339 337 332 330 330
348 349 349 344 344 341 339 340 339 337 334 332 330 329 328 327 327 330 330 329 329 330 332 332 332 333 334 334 333 333 334 335 335 338 341 345 349 340 334 336 337 333 338
348 348 345 345 341 337 336 336 337 335 329 328 327 328 333 336 337 338 337 337 330 330 337 335 333 334 335 334 335 334 334 334 336 344 343 341 345 343 337 331 339 340 335
347 348 342 344 339 334 332 331 331 330 329 329 331 335 336 336 337 334 334 335 335 338 336 334 333 334 341 337 334 334 335 334 344 346 344 343 344 339 339 331 331 334 335
345 347 347 337 337 334 330 329 329 329 329 330 333 336 338 339 338 338 334 334 340 337 334 339 336 334 336 338 333 336 336 336 344 346 346 343 340 335 340 335 335 334 332
345 345 346 342 334 334 331 329 329 329 330 332 335 335 336 338 338 336 338 336 335 335 337 339 336 336 335 340 332 335 337 338 345 347 346 344 340 333 335 336 333 340 334
345 345 345 346 345 345 342 329 329 330 331 332 333 333 335 338 337 335 333 338 340 339 338 341 340 334 338 340 333 332 337 338 346 349 346 348 341 334 334 335 335 335 339
345 345 345 346 346 346 345 342 330 330 330 331 334 337 340 346 347 347 346 343 341 333 331 333 338 337 339 336 331 332 336 345 348 346 347 346 340 339 337 335 335 337 338
344 344 345 346 346 346 346 347 347 346 347 348 348 348 349 347 347 346 346 338 333 334 334 331 333 338 340 341 346 342 345 347 347 346 345 345 340 341 341 336 336 337 339
343 344 345 345 347 347 347 347 347 347 347 347 348 351 348 346 346 347 346 346 346 345 345 348 350 350 350 347 344 345 349 348 347 347 346 345 339 341 341 342 342 340 339
343 344 345 346 347 347 347 347 347 347 347 347 347 349 347 347 346 347 345 346 347 348 349 350 349 347 350 347 349 348 348 348 349 347 347 343 341 341 342 343 342 341 339
342 344 346 347 349 348 348 348 348 347 347 347 347 348 346 347 347 347 348 348 348 350 350 350 349 351 350 350 351 351 351 351 349 349 347 347 342 343 343 343 342 341 340
345 346 347 348 344 339 343 342 347 347 347 347 348 347 344 343 347 348 349 349 349 351 351 351 352 353 349 349 351 352 351 350 349 348 348 349 347 344 344 343 342 341 340
347 347 347 348 348 341 339 339 345 346 346 347 348 348 346 342 340 342 349 350 349 351 351 350 352 352 351 351 352 348 351 352 351 350 350 349 350 349 347 346 345 341 341
349 350 351 350 350 349 348 346 347 347 347 347 348 349 344 335 338 344 346 348 349 350 350 350 350 351 349 348 350 350 349 351 351 352 351 350 349 348 350 349 346 344 343
350 351 353 353 353 352 350 347 346 346 347 348 348 350 351 350 349 347 351 350 350 349 349 349 349 351 350 349 349 349 350 349 349 350 351 352 352 351 350 350 349 346 345
350 352 353 354 352 353 353 347 348 349 347 347 349 350 351 352 351 350 352 353 353 351 349 348 349 349 349 348 346 345 346 347 349 350 349 349 350 350 350 351 352 351 347
349 351 352 351 344 345 350 351 350 349 350 349 348 349 351 352 352 353 352 352 353 353 352 351 351 352 349 348 348 347 346 344 343 344 345 347 349 349 351 351 352 351 350
347 349 351 345 345 344 345 346 350 350 351 351 351 351 350 346 346 350 351 351 351 350 353 354 353 349 347 348 349 350 349 348 348 346 345 344 344 345 346 349 351 352 351
347 348 348 343 344 344 344 351 349 346 349 351 352 349 347 340 340 339 339 342 347 349 349 351 352 350 348 348 350 351 350 348 345 345 347 347 348 349 348 347 348 350 343
347 347 348 343 343 343 343 345 347 351 352 351 352 352 352 347 340 340 341 340 339 346 350 349 351 348 350 349 350 351 352 352 351 348 344 345 348 348 348 349 348 349 349
346 346 347 342 342 342 342 342 344 345 351 352 352 353 353 350 344 342 342 342 344 346 348 343 347 351 351 350 349 349 350 349 349 351 350 346 344 344 345 346 345 347 349
350 347 347 345 342 342 342 342 342 343 343 348 352 353 353 354 354 348 345 344 343 344 345 345 345 351 352 353 353 353 350 351 351 351 349 348 346 345 345 345 345 346 347
Wind_Speed
19 21 21 20 22 21 20 19 19 20 20 20 19 17 17 17 18 18 17 17 18 17 15 14 15 14 11 8 5 6 7 7 7 8 10 10 11 10 12 15 16 11 13
24 22 22 21 21 20 18 18 17 18 18 17 16 15 14 13 14 13 14 14 14 13 13 12 12 11 8 5 2 2 4 4 3 5 7 9 10 10 10 12 14 11 11
24 23 22 21 21 20 18 17 17 16 16 15 14 12 10 10 9 8 8 8 9 9 9 8 7 5 3 1 3 3 2 2 1 2 11 6 3 7 9 9 8 9 10
23 22 20 21 21 19 17 17 17 17 15 13 11 9 7 6 4 3 3 3 4 5 6 6 5 3 1 1 2 4 5 3 2 3 6 5 4 5 6 7 7 7 7
22 21 21 20 19 18 17 17 16 15 14 13 11 8 6 4 3 2 2 2 3 3 4 5 4 3 3 4 4 5 5 4 1 4 4 6 4 3 3 5 5 6 10
21 20 21 20 19 18 16 16 16 15 13 12 9 7 4 2 1 1 1 2 3 4 3 3 2 2 4 5 5 5 6 5 1 2 4 4 5 6 2 3 6 5 5
21 19 22 20 18 17 17 16 15 14 13 10 7 6 4 3 4 4 4 5 3 4 4 4 4 4 3 3 4 5 6 7 4 5 6 6 6 7 5 5 4 4 4
20 19 19 20 18 17 16 16 14 12 11 9 7 5 5 5 5 6 6 6 6 7 7 6 6 6 5 4 3 4 4 6 6 8 8 7 11 8 7 6 5 5 4
18 18 17 18 18 16 17 15 13 11 10 9 8 7 8 8 7 7 7 8 8 8 8 8 7 7 7 6 5 5 4 4 6 7 9 8 12 11 8 7 6 6 5
17 16 16 16 16 15 15 16 14 12 11 11 11 10 10 9 8 9 9 9 10 9 8 8 7 7 7 6 6 6 6 5 5 6 8 8 13 11 12 12 9 9 8
17 16 15 15 15 14 14 13 15 14 13 13 12 11 10 6 8 7 10 13 11 10 8 7 6 6 7 8 7 7 8 4 8 7 7 12 9 10 11 12 12 11 11
18 17 16 14 13 13 12 12 10 10 9 9 9 9 8 8 9 8 10 10 7 5 4 4 4 4 5 7 6 7 5 7 9 8 9 17 13 10 9 10 13 14 12
17 17 16 15 15 13 11 11 10 9 10 10 12 11 8 9 7 6 5 5 4 7 1 6 6 5 7 6 5 6 7 7 7 8 9 16 12 10 9 10 11 13 15
17 16 15 15 15 14 12 12 11 11 10 10 9 11 10 8 8 8 7 6 5 4 5 4 4 9 5 6 4 8 4 7 7 9 9 11 10 10 11 12 12 12 12
17 16 15 15 15 15 16 13 13 12 12 11 11 11 11 10 10 8 7 7 7 6 6 6 6 7 6 6 5 5 7 8 8 8 8 14 11 12 12 12 12 13 13
16 16 15 16 16 15 16 16 14 13 13 13 13 12 13 12 11 10 10 8 9 8 7 7 9 9 8 6 7 7 8 9 8 10 11 12 14 14 15 16 16 15 15
15 15 16 16 16 16 16 15 15 14 12 13 13 15 15 14 15 14 11 11 12 11 11 11 10 10 10 10 11 10 9 11 11 12 12 12 14 15 16 17 18 17 16
15 16 15 15 16 16 15 14 13 14 13 13 13 13 14 15 15 14 14 14 13 14 13 13 12 13 12 11 12 13 13 13 14 14 14 14 13 12 14 15 17 17 19
17 17 17 17 16 15 16 16 16 16 15 14 14 15 15 16 16 17 15 14 15 16 16 16 15 15 14 14 15 15 15 15 15 15 16 17 17 17 16 16 20 18 19
17 16 16 16 17 17 16 18 18 17 18 18 17 17 18 18 20 21 18 18 18 17 18 18 18 17 16 16 15 16 18 18 18 18 18 19 19 20 20 18 18 17 19
18 18 18 18 19 20 20 19 18 20 19 19 20 21 21 21 21 21 20 20 20 20 21 20 20 20 18 16 17 18 18 18 21 22 22 21 21 20 19 18 20 18 18
20 20 21 21 22 23 23 22 20 17 18 19 19 21 24 26 27 25 26 23 22 21 23 22 22 22 21 18 18 18 19 18 17 17 18 20 21 21 21 20 20 21 20
20 21 21 19 21 23 23 20 21 23 24 21 21 23 24 24 24 27 29 30 28 27 24 24 22 23 22 22 21 18 11 15 13 11 12 16 18 19 19 21 22 23 29
19 17 19 18 19 20 23 24 25 22 21 20 20 20 21 24 24 26 27 28 29 28 27 26 26 28 25 24 21 22 21 21 17 21 20 18 15 18 20 21 21 23 24
14 17 16 15 16 18 21 22 24 26 24 22 21 22 25 27 30 30 31 32 32 31 29 33 30 28 25 27 25 21 22 26 24 23 24 23 22 23 21 20 22 23 23
14 16 16 18 18 20 22 24 26 28 30 26 24 24 23 23 25 33 34 35 37 37 37 35 31 25 29 25 24 22 21 23 24 23 25 25 25 25 25 26 24 24 24
Wind_Direction
155 156 151 159 158 155 147 139 140 135 135 135 130 121 114 109 102 99 92 90 95 101 105 117 133 142 142 133 99 74 71 92 112 113 100 102 93 106 108 100 74 95 94
153 157 154 159 161 163 159 150 149 147 148 142 138 130 120 109 104 101 96 93 92 94 103 111 119 126 133 137 112 61 47 49 99 120 111 90 91 98 113 107 134 106 99
153 159 156 160 164 165 162 154 152 152 151 151 151 143 134 121 109 102 99 97 97 100 107 110 115 118 113 29 347 350 31 59 95 128 100 109 82 105 110 113 108 104 100
154 159 160 163 165 165 164 161 158 154 155 154 159 158 151 135 117 95 90 103 101 111 125 130 134 133 142 286 299 314 326 350 70 122 98 145 112 110 103 109 110 114 114
156 156 168 161 165 166 167 165 165 160 157 159 162 164 166 166 172 181 209 204 160 146 144 148 158 168 213 240 261 266 273 295 324 94 172 154 133 271 130 131 107 108 116
154 159 173 165 167 168 167 167 166 164 160 165 170 175 181 185 176 194 161 190 199 190 179 183 187 228 234 247 248 247 259 245 195 206 197 216 163 235 216 173 155 154 137
157 162 167 170 170 173 170 171 167 166 170 179 188 190 200 243 271 272 259 250 230 233 243 264 279 276 249 258 256 246 236 241 199 238 236 209 223 241 226 192 186 165 157
159 163 169 174 177 178 178 179 176 179 184 197 209 221 243 262 269 264 260 260 263 269 271 280 287 290 285 284 271 254 237 221 247 230 239 241 240 224 208 207 202 196 196
161 162 168 173 181 184 188 191 194 198 208 217 226 245 259 267 271 273 267 264 259 263 275 282 286 295 278 276 279 262 254 239 189 234 227 246 250 228 224 228 222 224 223
165 167 171 176 181 186 199 204 211 216 224 234 245 256 262 269 284 284 286 301 286 271 259 268 263 240 268 264 273 262 257 265 255 243 244 237 242 234 249 252 241 230 228
171 175 177 186 186 195 197 224 224 228 236 246 259 273 266 279 276 294 283 267 277 278 266 248 245 240 253 267 268 255 248 249 259 259 249 252 252 253 247 243 242 246 245
178 183 185 190 196 200 203 208 231 236 245 251 250 248 270 261 254 239 240 280 268 268 260 284 283 261 269 268 274 289 268 246 267 260 250 259 261 253 253 246 245 252 252
182 186 191 194 196 203 208 218 217 228 237 245 243 237 245 244 261 278 268 283 288 289 260 301 301 290 275 278 279 243 255 275 258 262 257 267 251 247 254 260 257 256 260
188 191 196 198 205 204 215 218 222 224 235 234 244 245 240 250 253 246 238 242 255 239 241 253 270 303 274 290 285 292 279 271 269 260 257 273 258 252 256 260 258 258 257
192 195 197 203 206 210 216 220 222 227 237 236 240 244 234 235 238 235 240 238 235 241 255 264 270 260 261 296 292 287 287 275 269 260 257 274 259 263 262 262 266 265 264
190 199 201 207 214 218 220 225 228 232 236 239 239 242 247 235 239 232 238 242 243 244 245 255 264 267 277 273 267 277 278 279 272 255 257 264 273 266 269 272 267 265 259
199 202 209 212 217 226 231 233 233 234 240 238 240 239 238 235 240 235 244 245 243 244 253 270 274 275 275 269 276 291 272 267 262 262 257 255 266 281 278 272 270 261 260
206 216 215 219 222 227 232 236 233 239 238 242 243 240 243 233 233 242 243 247 248 248 260 262 262 257 266 266 264 262 262 268 263 259 255 253 260 255 273 286 269 260 255
215 220 226 227 228 229 241 240 243 240 240 240 242 242 244 240 239 242 243 249 250 250 252 255 262 268 266 264 265 278 280 267 264 266 264 263 261 258 261 261 269 257 252
219 229 234 236 240 234 233 249 242 244 246 244 243 243 242 245 246 248 250 251 252 254 253 252 250 254 260 267 269 269 263 263 261 256 257 263 268 270 269 259 257 264 257
227 233 234 241 249 249 246 240 241 241 246 246 246 246 245 247 245 249 253 255 257 255 252 252 257 260 257 259 269 275 274 273 269 267 266 265 262 261 263 259 251 247 253
229 233 236 249 250 255 251 253 243 247 251 251 252 250 255 257 256 252 250 249 248 250 256 255 252 254 260 256 255 266 278 283 272 270 266 261 262 264 263 260 252 251 250
229 233 237 252 258 259 260 249 251 255 253 252 252 254 257 263 259 256 253 255 249 249 248 250 256 256 253 255 255 252 271 258 280 272 276 271 267 263 261 260 255 256 259
228 233 236 253 257 260 259 252 248 241 245 250 255 253 253 259 258 256 257 256 257 247 245 243 243 241 245 248 252 256 253 263 270 274 271 269 268 272 271 264 261 258 258
229 228 231 249 254 252 259 259 255 255 251 257 256 255 256 257 266 264 261 260 260 259 253 252 246 244 244 246 241 239 254 262 262 260 272 269 270 272 269 266 269 264 259
231 230 231 238 243 249 255 263 264 264 271 264 262 262 264 264 267 270 267 266 267 265 265 262 257 253 259 254 250 244 249 258 260 260 263 269 272 275 272 271 267 267 265